Wind_Speed
19 19 20 21 22 22 23 23 23 24 24 25 25 26 26 27 28 29 30 31 33 34 35 36 37 39 40 41 43 44 45 46 48 49 49 50 51 52 53 54 55 56 57
20 21 22 22 23 23 24 24 25 25 26 27 27 28 28 29 31 32 33 34 35 36 38 39 40 41 43 44 45 47 48 49 51 53 54 53 53 54 56 57 58 59 60
21 22 23 23 24 25 25 26 27 28 28 29 29 30 31 32 33 34 35 37 38 39 41 42 43 45 46 47 49 51 52 53 55 57 59 59 59 59 59 61 62 64 65
22 23 24 25 26 26 27 28 29 29 30 31 32 33 34 35 36 37 38 39 41 42 44 45 47 48 50 52 53 55 57 58 59 60 63 64 66 67 66 65 66 68 70
24 25 26 26 28 29 29 30 31 31 32 33 34 35 36 37 38 39 41 42 44 45 47 49 51 52 54 56 57 59 60 62 64 65 67 69 70 72 74 73 72 73 74
26 26 27 28 29 30 31 32 33 33 34 36 37 38 38 40 41 42 44 45 47 49 51 53 54 56 58 60 62 63 65 67 68 70 72 73 75 76 79 80 80 80 80
27 28 29 30 31 32 34 34 35 36 37 38 39 40 41 42 44 45 47 49 51 53 54 56 58 60 62 64 66 67 69 70 72 73 75 77 78 80 81 83 83 83 82
29 30 31 32 34 34 36 36 38 39 39 40 41 42 44 45 47 49 51 53 54 56 58 60 62 64 66 68 69 71 72 73 75 76 77 77 78 79 79 80 81 81 80
31 32 33 35 36 37 38 39 40 41 42 43 44 45 47 49 50 52 54 56 57 59 61 63 65 67 68 70 71 72 74 75 76 76 77 77 77 76 77 77 79 81 81
33 34 35 37 38 39 40 41 42 43 44 46 47 48 50 52 54 55 57 59 61 63 65 66 67 68 70 71 73 74 75 75 75 76 76 76 75 76 76 77 78 80 81
35 36 38 39 40 40 41 43 44 45 46 48 50 51 53 55 57 58 60 62 64 65 67 68 69 70 72 74 75 76 76 76 76 76 76 76 75 75 76 76 77 77 77
37 38 39 40 41 42 44 45 47 48 49 51 52 54 56 58 60 61 63 64 66 67 68 70 71 73 74 76 76 76 76 76 76 76 75 74 74 75 75 75 74 73 72
38 39 40 41 43 44 46 47 49 50 51 53 55 57 59 61 62 64 65 66 67 69 70 72 73 75 76 76 76 76 76 76 75 74 73 73 73 73 72 72 71 69 67
39 41 42 43 45 46 48 49 51 52 54 55 58 60 62 63 65 66 67 68 69 71 72 74 75 76 76 76 76 76 76 75 74 73 72 72 72 71 69 67 65 63 62
41 42 44 45 46 48 50 51 53 54 56 58 60 62 64 65 66 67 69 70 71 73 74 76 76 76 75 75 75 76 75 74 73 72 71 70 68 66 64 61 59 57 56
43 44 45 47 48 50 51 53 55 57 59 61 63 64 66 67 68 69 70 72 73 75 76 76 76 75 75 76 76 76 75 74 72 70 68 65 62 59 56 55 53 52 52
45 46 47 49 50 52 54 56 57 59 61 63 65 66 67 69 70 71 72 74 75 76 77 76 76 75 76 76 76 75 74 72 69 66 63 59 56 53 52 50 49 48 47
46 48 49 51 52 54 56 58 59 61 63 65 66 68 69 70 71 73 74 76 77 77 77 76 76 76 76 76 74 72 70 67 63 60 57 54 50 49 48 46 44 43 43
48 50 51 52 54 56 58 59 61 63 65 67 68 69 71 72 73 75 76 77 78 78 77 77 76 76 74 73 71 68 64 60 56 53 51 49 46 45 44 43 41 40 40
50 51 52 54 56 58 59 61 63 65 67 68 69 70 72 74 75 76 77 78 78 78 77 76 75 75 72 69 65 62 58 54 51 48 46 44 43 41 40 40 39 39 38
51 53 54 55 57 59 61 63 65 66 68 69 71 72 74 75 77 78 78 78 79 78 77 76 74 71 68 63 59 55 53 50 47 44 42 40 39 38 37 37 38 37 37
53 54 55 57 59 61 63 65 66 68 69 71 72 73 75 77 78 78 78 79 79 78 76 74 70 66 61 56 53 50 49 47 45 42 39 37 37 36 36 36 36 36 35
54 56 57 59 60 62 65 66 68 69 71 72 74 75 76 77 78 78 79 78 78 76 74 70 65 60 54 51 49 47 46 44 43 40 38 37 37 36 36 35 35 34 34
56 58 59 60 62 64 66 68 70 71 73 74 75 76 77 78 78 78 78 77 75 73 69 65 59 54 49 47 45 44 43 42 40 39 37 36 35 35 35 34 34 34 33
58 59 61 63 64 66 68 70 72 73 74 75 77 77 78 78 78 77 76 74 71 68 65 60 55 50 46 44 44 42 40 39 38 36 35 34 34 33 33 33 32 32 32
60 61 63 64 66 68 69 71 73 75 76 77 78 78 78 78 77 76 73 69 65 62 58 55 52 49 46 44 42 41 39 38 37 36 34 33 33 33 33 32 32 32 32
Wind_Direction
300 299 299 299 299 299 299 299 298 298 297 296 295 294 293 292 292 292 292 291 291 291 291 291 290 290 290 290 289 288 287 286 285 284 282 281 281 280 279 278 277 276 275
299 299 300 300 300 299 299 299 299 298 298 296 295 294 294 294 293 293 293 293 293 293 293 292 292 292 291 291 290 290 289 288 288 286 285 283 281 280 280 279 278 277 276
300 299 299 299 300 299 299 299 299 298 298 296 296 295 296 295 295 294 294 294 294 294 294 294 293 293 293 292 292 291 291 290 289 288 287 286 284 281 280 280 279 278 276
300 299 299 298 299 299 299 299 299 298 297 297 296 296 296 296 295 294 294 294 294 294 294 294 294 294 294 294 293 293 292 291 290 289 289 288 287 285 283 281 280 279 278
300 299 299 299 299 299 299 299 298 297 296 296 297 297 296 296 295 295 295 294 295 295 295 295 295 295 295 294 294 294 293 293 292 291 290 289 288 287 286 284 282 280 279
300 300 299 299 299 299 299 298 298 297 297 297 297 297 296 296 296 296 296 296 296 296 296 296 296 296 295 295 295 295 294 294 293 292 291 290 289 288 287 286 284 282 281
300 300 299 300 299 299 299 298 298 298 298 297 297 297 296 296 296 297 296 296 296 296 297 297 297 297 296 296 296 296 295 295 294 293 293 292 291 290 289 287 286 284 282
301 301 300 300 300 300 299 299 299 298 298 298 298 298 297 297 297 298 297 297 298 298 298 298 298 298 298 297 297 297 296 296 295 294 293 292 292 290 289 288 287 286 284
301 302 301 301 301 300 300 300 299 299 299 299 299 299 299 299 299 299 299 299 299 299 299 299 299 299 299 299 298 298 298 297 296 295 294 294 292 291 290 289 289 288 286
301 301 302 302 301 300 300 300 300 300 299 299 299 299 300 300 300 300 301 301 301 301 301 301 301 301 301 300 300 300 299 298 297 296 295 294 293 292 291 290 289 289 288
301 301 301 301 301 301 301 301 301 301 300 300 300 301 301 301 302 302 302 303 302 302 302 302 302 302 302 302 301 301 300 299 298 297 296 295 294 293 292 291 290 289 288
301 301 301 301 301 301 301 302 302 301 301 301 301 302 302 303 303 304 304 304 303 303 304 304 304 304 304 303 302 301 300 300 299 298 297 296 295 294 293 292 291 290 288
301 301 301 301 301 301 301 302 302 302 302 302 303 303 304 304 304 305 305 305 305 305 305 305 305 305 305 304 303 302 302 301 300 299 297 296 296 295 294 292 291 289 288
301 301 301 301 301 301 301 302 302 303 303 303 304 304 305 305 306 305 306 306 306 306 306 306 306 306 305 305 304 303 303 301 301 299 298 297 296 295 293 292 290 288 287
301 301 301 301 301 301 302 302 303 303 304 304 305 305 306 306 306 306 306 307 307 307 307 307 307 307 306 305 304 304 303 302 301 300 298 297 296 294 292 291 290 288 287
301 301 301 301 301 301 302 303 303 304 305 305 306 306 306 307 307 307 307 308 308 308 308 308 308 307 307 306 306 305 304 303 302 300 299 297 295 293 291 290 290 289 288
301 301 301 301 301 302 302 303 304 305 305 306 306 307 307 307 308 308 309 309 309 309 309 309 308 308 307 307 306 305 304 303 302 300 299 297 295 292 291 290 289 288 289
301 301 301 301 302 302 303 304 304 305 306 307 307 308 308 309 309 310 310 310 310 310 310 310 309 308 308 307 307 305 304 303 302 300 299 297 294 292 291 290 289 288 288
300 301 301 302 302 303 304 304 305 306 307 308 309 309 309 310 310 311 311 311 311 311 311 311 310 309 309 308 307 305 304 304 303 301 299 297 295 293 292 291 290 289 288
301 302 302 303 303 304 305 306 307 307 308 309 310 310 310 311 311 312 312 312 312 312 312 311 310 310 309 309 307 305 304 304 304 302 300 298 296 294 292 292 291 291 290
302 303 303 304 304 305 306 307 308 308 309 310 311 311 312 312 312 312 313 313 313 313 312 312 311 310 309 308 306 305 305 304 304 302 300 298 296 295 293 293 293 293 292
303 304 304 305 306 306 307 308 309 309 310 311 312 312 313 313 313 313 314 314 314 313 313 312 311 310 309 307 305 305 305 304 304 303 301 299 297 295 294 293 294 293 293
304 305 306 306 307 308 308 309 310 311 311 312 312 313 313 313 314 314 314 314 314 313 313 313 312 310 308 306 305 304 304 304 303 302 300 299 297 296 295 294 293 292 292
305 306 307 307 308 309 309 310 311 311 312 313 313 313 314 314 314 315 315 315 314 313 313 313 312 310 308 306 305 304 304 303 302 301 299 298 298 297 296 295 293 293 292
306 307 307 308 309 309 310 311 311 312 313 313 313 314 314 314 315 315 316 315 315 314 314 313 312 310 309 308 307 306 304 303 302 300 298 297 297 297 296 295 294 293 292
306 307 308 309 309 310 311 311 312 313 313 314 314 314 315 315 315 316 316 315 314 314 313 313 312 311 310 309 308 306 305 304 302 302 301 299 298 298 296 295 294 293 292
Height
5816 5815 5813 5811 5810 5808 5806 5804 5802 5800 5799 5797 5795 5793 5791 5789 5787 5785 5782 5780 5778 5776 5774 5771 5769 5766 5764 5761 5759 5756 5754 5752 5748 5746 5745 5744 5742 5741 5739 5737 5735 5734 5732
5812 5810 5809 5807 5805 5803 5801 5799 5797 5795 5793 5791 5789 5787 5785 5783 5780 5778 5775 5773 5770 5767 5765 5762 5759 5756 5754 5751 5747 5744 5741 5739 5735 5732 5729 5729 5730 5727 5724 5722 5720 5718 5716
5808 5806 5804 5802 5800 5798 5796 5794 5792 5790 5787 5785 5783 5780 5778 5775 5773 5770 5767 5764 5761 5758 5755 5752 5749 5746 5742 5739 5735 5732 5728 5725 5722 5717 5713 5710 5710 5710 5710 5706 5703 5700 5698
5803 5801 5799 5797 5795 5793 5791 5789 5786 5784 5781 5779 5776 5774 5771 5768 5765 5762 5759 5756 5752 5749 5745 5741 5738 5734 5730 5726 5722 5718 5714 5710 5706 5702 5697 5693 5689 5686 5687 5689 5685 5680 5677
5798 5796 5794 5792 5790 5787 5785 5782 5780 5777 5775 5772 5769 5766 5763 5760 5757 5753 5750 5746 5743 5738 5734 5730 5726 5721 5717 5712 5708 5703 5698 5693 5689 5685 5680 5675 5670 5665 5661 5662 5662 5659 5656
5793 5791 5789 5786 5784 5781 5779 5776 5773 5770 5767 5764 5761 5758 5755 5751 5748 5744 5740 5736 5732 5727 5723 5718 5713 5708 5703 5698 5692 5687 5682 5676 5670 5665 5659 5654 5649 5644 5638 5635 5634 5632 5631
5787 5785 5783 5780 5777 5774 5772 5769 5766 5763 5759 5756 5753 5749 5745 5742 5738 5734 5729 5725 5720 5715 5710 5705 5699 5693 5688 5682 5675 5669 5664 5657 5651 5644 5638 5631 5626 5619 5613 5608 5605 5603 5603
5781 5779 5776 5773 5770 5767 5764 5761 5758 5754 5751 5747 5743 5739 5735 5731 5727 5722 5717 5712 5707 5702 5696 5690 5684 5677 5671 5664 5657 5651 5644 5637 5630 5623 5616 5609 5603 5595 5588 5582 5577 5573 5575
5774 5771 5769 5766 5763 5759 5756 5752 5749 5745 5741 5737 5733 5729 5724 5720 5715 5710 5704 5699 5693 5687 5680 5674 5667 5660 5653 5645 5638 5631 5623 5616 5608 5600 5593 5586 5580 5572 5566 5559 5552 5546 5544
5767 5764 5761 5758 5754 5751 5747 5743 5739 5735 5731 5727 5722 5718 5713 5707 5702 5696 5690 5684 5678 5671 5664 5657 5649 5642 5634 5626 5618 5610 5602 5594 5587 5578 5571 5564 5557 5550 5543 5536 5530 5522 5515
5759 5756 5753 5749 5746 5742 5738 5734 5730 5725 5721 5716 5711 5706 5700 5694 5688 5682 5676 5669 5662 5654 5647 5639 5631 5623 5615 5606 5598 5589 5581 5573 5565 5557 5549 5542 5534 5528 5521 5513 5506 5499 5491
5751 5748 5744 5740 5737 5733 5728 5724 5719 5715 5710 5704 5699 5693 5687 5681 5674 5667 5660 5653 5645 5637 5629 5621 5613 5604 5595 5586 5577 5568 5560 5551 5543 5535 5526 5519 5511 5505 5497 5490 5483 5477 5470
5742 5739 5735 5731 5727 5723 5718 5713 5708 5703 5698 5692 5686 5680 5673 5667 5659 5652 5644 5636 5628 5620 5611 5602 5593 5584 5575 5565 5555 5546 5538 5529 5521 5513 5505 5497 5489 5482 5475 5467 5461 5455 5449
5733 5729 5725 5721 5717 5712 5708 5703 5697 5692 5686 5680 5673 5666 5659 5652 5644 5636 5628 5620 5611 5602 5593 5584 5574 5564 5554 5544 5534 5525 5516 5508 5500 5491 5483 5475 5467 5459 5452 5446 5440 5435 5430
5724 5720 5715 5711 5707 5702 5696 5691 5685 5679 5673 5667 5660 5652 5644 5637 5628 5620 5612 5603 5594 5584 5574 5564 5554 5544 5533 5523 5513 5504 5495 5487 5479 5470 5462 5453 5445 5438 5431 5425 5421 5416 5412
5714 5710 5705 5700 5696 5690 5685 5679 5673 5667 5660 5653 5645 5637 5629 5621 5613 5604 5595 5585 5576 5566 5555 5544 5534 5524 5513 5502 5492 5482 5473 5465 5457 5449 5441 5433 5426 5419 5413 5408 5404 5400 5396
5704 5700 5695 5690 5684 5679 5673 5667 5660 5653 5646 5638 5630 5622 5613 5605 5596 5586 5577 5567 5557 5546 5536 5525 5514 5504 5493 5481 5471 5461 5451 5444 5436 5427 5420 5414 5408 5402 5397 5393 5389 5386 5382
5694 5689 5684 5678 5672 5666 5660 5654 5646 5639 5631 5623 5614 5606 5597 5588 5578 5569 5559 5548 5537 5527 5516 5505 5494 5483 5473 5461 5450 5440 5431 5424 5416 5409 5402 5396 5391 5386 5381 5378 5376 5373 5370
5683 5678 5672 5666 5660 5653 5647 5640 5632 5624 5616 5607 5599 5589 5580 5570 5561 5550 5540 5529 5518 5507 5496 5485 5474 5463 5453 5441 5430 5420 5412 5406 5399 5392 5386 5380 5376 5372 5367 5364 5362 5360 5357
5671 5665 5659 5653 5647 5640 5633 5626 5618 5609 5600 5592 5582 5573 5562 5552 5542 5531 5520 5509 5498 5487 5476 5466 5454 5443 5433 5422 5411 5402 5395 5390 5385 5379 5372 5367 5362 5359 5355 5351 5349 5347 5344
5659 5653 5647 5640 5633 5626 5618 5611 5602 5593 5584 5575 5566 5556 5545 5534 5523 5513 5501 5490 5479 5468 5457 5447 5436 5424 5414 5404 5395 5386 5379 5374 5370 5365 5360 5355 5350 5347 5343 5340 5337 5334 5331
5646 5640 5634 5627 5619 5611 5603 5596 5587 5578 5569 5559 5549 5539 5528 5516 5505 5493 5482 5470 5458 5448 5437 5426 5417 5407 5397 5388 5380 5373 5366 5360 5356 5352 5348 5344 5340 5336 5333 5329 5326 5322 5319
5633 5626 5620 5613 5605 5596 5588 5580 5571 5561 5552 5542 5532 5521 5510 5498 5486 5474 5463 5452 5439 5428 5417 5407 5399 5391 5382 5374 5366 5360 5354 5348 5343 5340 5336 5332 5328 5325 5322 5318 5315 5311 5309
5619 5612 5605 5598 5590 5581 5572 5563 5554 5545 5535 5525 5514 5503 5492 5481 5469 5457 5444 5432 5420 5409 5399 5389 5381 5375 5368 5361 5354 5348 5343 5337 5332 5328 5325 5321 5317 5314 5311 5308 5304 5301 5298
5605 5598 5591 5583 5575 5566 5557 5547 5537 5528 5518 5507 5496 5485 5474 5462 5451 5440 5427 5414 5403 5390 5381 5373 5366 5359 5355 5349 5342 5335 5331 5326 5322 5318 5315 5311 5307 5304 5300 5297 5294 5291 5288
5591 5584 5576 5568 5559 5550 5541 5531 5521 5510 5500 5489 5478 5467 5455 5444 5432 5421 5412 5400 5387 5377 5367 5358 5351 5345 5340 5335 5330 5324 5319 5315 5310 5307 5304 5300 5297 5293 5290 5287 5284 5281 5278